Regional Weather Roundup
Issued by NWS

Home | Current Version | Previous Version | Graphics & Text | Print | Product List | Glossary On
Versions: 1 2 3 4 5 6 7 8 9 10 11 12 13 14 15 16 17 18 19 20 21 22 23 24 25 26 27 28 29 30 31 32 33 34 35 36 37 38 39 40 41 42 43 44 45 46 47 48 49 50
000
ASUS43 KIND 180159
RWRIN

WEATHER ROUNDUP FOR INDIANA
NATIONAL WEATHER SERVICE INDIANAPOLIS IN
1000 PM EDT TUE OCT 17 2017

NOTE: "FAIR" INDICATES FEW OR NO CLOUDS BELOW 12,000 FEET WITH NO
SIGNIFICANT WEATHER AND/OR OBSTRUCTIONS TO VISIBILITY.

* - STATION DOES NOT REPORT WEATHER SUCH AS PRECIPITATION OR FOG.

+ - STATION NOT QUALITY CONTROLLED BY THE NATIONAL WEATHER SERVICE.
    USE DATA WITH CAUTION...ESPECIALLY DEWPOINT AND RELATIVE
    HUMIDITY OBSERVATIONS.

INZ001>003-010>013-019-020-180300-
NORTHWEST INDIANA

CITY           SKY/WX    TMP DP  RH WIND       PRES   REMARKS
GARY /AIRPORT/ CLEAR     61  37  41 S7        30.17R
MICHIGAN CITY+ CLEAR     55  39  54 S6        30.19R
MONTICELLO +   CLEAR     52  40  64 S5        30.21S
RENSSELAER +   CLEAR     54  32  43 S7        30.20S

$$

LMZ046-743>745-180300-
SOUTHERN LAKE MICHIGAN

STATION/POSITION TIME  TEMP    WIND        PRES    WAVE
                       AIR SEA DIR/SP/G            HT
                 (UTC) (F)     (DEG/KT/KT) (MB)    (FT)
BURNS HARBOR     0140   60     200/ 11/ 13 1022.0R
MICHIGAN CITY    0130   60     170/ 10/ 12   N/A
5NW MICH CITY    0140   60 57  190/  8/ 10   N/A     1

$$

INZ004-005-014>016-021>024-180300-
NORTH CENTRAL INDIANA

CITY           SKY/WX    TMP DP  RH WIND       PRES   REMARKS
GOSHEN         CLEAR     53  39  59 S8        30.20R
PERU/GRISSOM   CLEAR     50  41  71 SW8       30.22S
SOUTH BEND     CLEAR     54  41  61 SW7       30.20R

$$

INZ006>009-017-018-025>027-180300-
NORTHEAST INDIANA

CITY           SKY/WX    TMP DP  RH WIND       PRES   REMARKS
FORT WAYNE     CLEAR     49  40  71 SW7       30.22R
KENDALLVILLE + CLEAR     53  41  62 SW6       30.22R

$$

INZ028-029-035-036-043>045-051>053-180300-
WEST CENTRAL INDIANA

CITY           SKY/WX    TMP DP  RH WIND       PRES   REMARKS
LAFAYETTE      CLEAR     49  42  77 CALM      30.23R
TERRE HAUTE    CLEAR     47  40  76 CALM      30.24S

$$

INZ030>032-037>040-046>048-054>057-064-065-180300-
CENTRAL INDIANA

CITY           SKY/WX    TMP DP  RH WIND       PRES   REMARKS
COLUMBUS       CLEAR     48  41  76 CALM      30.27R
INDIANAPOLIS   CLEAR     52  40  63 S8        30.26R
-EAGLE CREEK   CLEAR     51  41  68 S3        30.25R
KOKOMO +       CLEAR     53  41  63 S9        30.23S
MT COMFORT *+  CLEAR     50  43  76 S5        30.26S
SHELBYVILLE    CLEAR     50  39  66 S6        30.26R

$$

INZ033-034-041-042-049-050-058-059-180300-
EAST CENTRAL INDIANA

CITY           SKY/WX    TMP DP  RH WIND       PRES   REMARKS
MUNCIE         CLEAR     54  39  57 S5        30.25R
RICHMOND +     CLEAR     45  39  81 S6        30.27S

$$

INZ060-061-067>069-081>083-085>088-180300-
SOUTHWEST INDIANA

CITY           SKY/WX    TMP DP  RH WIND       PRES   REMARKS
EVANSVILLE     CLEAR     50  45  83 CALM      30.26S
HUNTINGBURG +  CLEAR     50  44  80 SE6       30.26S

$$

INZ062-063-066-070>080-084-089>092-180300-
SOUTH CENTRAL AND SOUTHEAST INDIANA

CITY           SKY/WX    TMP DP  RH WIND       PRES   REMARKS
BLOOMINGTON    CLEAR     47  40  76 CALM      30.26R
MADISON *+     CLEAR     45  41  87 CALM      30.30R
SEYMOUR +      CLEAR     46  41  81 CALM      30.27R

$$





USA.gov is the U.S. government's official web portal to all federal, state and local government web resources and services.